Seatac, WA

12:47 AM PDT on July 26, 2016 (GMT -0700)
Seattle-Tacoma International

Weather History for KSEA - October, 2006

Change the Weather History Date:

Sunday, October 1, 2006

  Actual Average Record
Temperature  
Mean Temperature 58 °F 57 °F  
Max Temperature 66 °F 65 °F 89 °F (1987)
Min Temperature 50 °F 49 °F 35 °F (1950)
Degree Days  
Heating Degree Days 7 8  
Month to date heating degree days 7 8  
Since 1 July heating degree days 181 225  
Cooling Degree Days 0 0  
Month to date cooling degree days 0 0  
Year to date cooling degree days 270 189  
Growing Degree Days 8 (Base 50)    
Moisture  
Dew Point 45 °F    
Average Humidity 65    
Maximum Humidity 86    
Minimum Humidity 43    
Precipitation  
Precipitation 0.00 in 0.07 in 0.56 in (1981)
Month to date precipitation 0.00 0.07  
Year to date precipitation 23.94 22.16  
Sea Level Pressure  
Sea Level Pressure 30.03 in    
Wind  
Wind Speed 7 mph (North)    
Max Wind Speed 15 mph    
Max Gust Speed 17 mph    
Visibility 10 miles    
Events      
T = Trace of Precipitation, MM = Missing Value Source: NWS Daily Summary

Daily Weather History Graph

Daily Weather History Graph

Search for Another Location

Airport or City:

Trip Planner

Search our weather history database for the weather conditions in past years. The results will help you decide how hot, cold, wet, or windy it might be!

Date:

Astronomy

Oct. 01, 2006 Rise Set
Actual Time 7:08 AM PDT 6:48 PM PDT
Civil Twilight 6:37 AM PDT 7:19 PM PDT
Nautical Twilight 6:02 AM PDT 7:54 PM PDT
Astronomical Twilight 5:25 AM PDT 8:30 PM PDT
Moon 4:33 PM PDT (10/1) No Moon Set
Length of Visible Light 12h 41m
Length of Day
11h 40m
Waxing Gibbous, 64% of the Moon is Illuminated
Oct 1
Waxing Gibbous
Oct 6
Full
Oct 13
Last Quarter
Oct 21
New
Oct 29
First Quarter

Hourly Weather History & Observations

Time (PDT) Temp. Dew Point Humidity Pressure Visibility Wind Dir Wind Speed Gust Speed Precip Events Conditions
12:53 AM 55.9 °F 43.0 °F 62% 30.01 in 10.0 mi NE 11.5 mph - N/A   Mostly Cloudy
1:53 AM 55.0 °F 44.1 °F 67% 30.01 in 10.0 mi NE 12.7 mph - N/A   Overcast
2:53 AM 54.0 °F 44.1 °F 69% 30.01 in 10.0 mi NE 11.5 mph - N/A   Overcast
3:53 AM 53.1 °F 44.1 °F 71% 30.01 in 10.0 mi NNE 8.1 mph - N/A   Overcast
4:53 AM 53.1 °F 44.1 °F 71% 30.01 in 10.0 mi NNE 9.2 mph - N/A   Overcast
5:53 AM 53.1 °F 45.0 °F 74% 30.02 in 10.0 mi North 5.8 mph - N/A   Mostly Cloudy
6:53 AM 52.0 °F 44.1 °F 74% 30.03 in 10.0 mi NNE 6.9 mph - N/A   Mostly Cloudy
7:53 AM 53.1 °F 45.0 °F 74% 30.04 in 10.0 mi NNE 6.9 mph - N/A   Mostly Cloudy
8:53 AM 54.0 °F 46.0 °F 75% 30.05 in 10.0 mi North 6.9 mph - N/A   Mostly Cloudy
9:53 AM 54.0 °F 46.0 °F 75% 30.06 in 10.0 mi NNE 8.1 mph - N/A   Mostly Cloudy
10:53 AM 55.0 °F 46.9 °F 74% 30.07 in 10.0 mi North 8.1 mph - N/A   Mostly Cloudy
11:53 AM 57.0 °F 46.9 °F 69% 30.06 in 10.0 mi North 4.6 mph - N/A   Mostly Cloudy
12:53 PM 59.0 °F 48.0 °F 67% 30.05 in 10.0 mi Calm Calm - N/A   Scattered Clouds
1:53 PM 64.0 °F 46.9 °F 54% 30.04 in 10.0 mi NW 8.1 mph - N/A   Scattered Clouds
2:53 PM 64.0 °F 43.0 °F 46% 30.03 in 10.0 mi NW 5.8 mph - N/A   Scattered Clouds
3:53 PM 64.0 °F 41.0 °F 43% 30.02 in 10.0 mi Variable 3.5 mph - N/A   Scattered Clouds
4:53 PM 63.0 °F 43.0 °F 48% 30.01 in 10.0 mi NW 5.8 mph - N/A   Scattered Clouds
5:53 PM 61.0 °F 44.1 °F 54% 30.01 in 10.0 mi NW 6.9 mph - N/A   Scattered Clouds
6:53 PM 57.0 °F 46.0 °F 67% 30.02 in 10.0 mi North 8.1 mph - N/A   Scattered Clouds
7:53 PM 55.0 °F 46.0 °F 72% 30.02 in 10.0 mi North 9.2 mph - N/A   Scattered Clouds
8:53 PM 55.9 °F 46.9 °F 72% 30.03 in 10.0 mi NE 9.2 mph - N/A   Partly Cloudy
9:53 PM 55.0 °F 48.0 °F 77% 30.03 in 10.0 mi NNE 6.9 mph - N/A   Partly Cloudy
10:53 PM 54.0 °F 46.9 °F 77% 30.02 in 10.0 mi NE 6.9 mph - N/A   Clear
11:53 PM 50.0 °F 46.9 °F 89% 30.03 in 10.0 mi WNW 4.6 mph - N/A   Scattered Clouds